User: anonymous   Login
Location: Vigo di Fassa
(46.4167°N, 11.6667°E)
Time: 10:07:29
(UTC+00:00)
Language:

Cosmos 1666 - Orbit

View from above orbital plane
View from above orbital plane
View from above satellite
View from above satellite

Ground track
Ground track

The orbit data is extracted from the following two-line orbital elements,

1 15889U 85058A   21136.72344302  .00000884  00000-0  39939-4 0  9992
2 15889  82.4891  15.5042 0017978 123.9948 236.2998 15.19463152958817
Epoch (UTC): 16 May 2021 17:21:45
Eccentricity: 0.0017978
inclination: 82.4891°
perigee height: 495 km
apogee height: 520 km
right ascension of ascending node: 15.5042°
argument of perigee: 123.9948°
revolutions per day: 15.19463152
mean anomaly at epoch: 236.2998°
orbit number at epoch: 95881

The dashed part of the orbit path shows where the satellite is in the earth's shadow,  

DLR